User: anonymous   Login
Location: Arrakis Observatory
(44.1122°N, 95.7153°W)
Time: 04:37:40
(UTC-06:00)
Language:

SL-8 R/B - Orbit

View from above orbital plane
View from above orbital plane
View from above satellite
View from above satellite

Ground track
Ground track

The orbit data is extracted from the following two-line orbital elements,

1 32751U 08014B   14326.98174893  .27322294  29498-5  21908-3 0  1056
2 32751 098.1061 307.1410 0008293 294.6705 065.5782 16.52386422372774
Epoch (UTC): 22 November 2014 23:33:43
Eccentricity: 0.0008293
inclination: 98.1061°
perigee height: 127 km
apogee height: 138 km
right ascension of ascending node: 307.1410°
argument of perigee: 294.6705°
revolutions per day: 16.52386422
mean anomaly at epoch: 65.5782°
orbit number at epoch: 37277

The dashed part of the orbit path shows where the satellite is in the earth's shadow,  

DLR